Regional Weather Roundup
Issued by NWS Green Bay, WI

Home | Current Version | Previous Version | Graphics & Text | Print | Product List | Glossary Off
Versions: 1 2 3 4 5 6 7 8 9 10 11 12 13 14 15 16 17 18 19 20 21 22 23 24 25 26 27 28 29 30 31 32 33 34 35 36 37 38 39 40 41 42 43 44 45 46 47 48 49 50

000
ASUS43 KGRB 111959
RWRGRB

NORTH-CENTRAL AND NORTHEAST WISCONSIN REGIONAL WEATHER ROUNDUP
NATIONAL WEATHER SERVICE GREEN BAY WI
300 PM CDT FRI JUL 11 2014

WIZ005-009-010>012-018-019-112100-
NORTH CENTRAL WISCONSIN

CITY           SKY/WX    TMP DP  RH WIND       PRES   REMARKS
IRONWOOD       NOT AVBL
MANITOWISH WTR NOT AVBL
ARBOR VITAE    NOT AVBL
EAGLE RIVER    NOT AVBL
LAND O LAKES   NOT AVBL
RHINELANDER    CLOUDY    74  59  59 S12       30.06S
PHILLIPS       CLOUDY    72  62  70 S10       30.02S
ANTIGO         NOT AVBL
TOMAHAWK       NOT AVBL
MERRILL        NOT AVBL
$$

WIZ013-073-112100-
NORTHEAST WISCONSIN

CITY           SKY/WX    TMP DP  RH WIND       PRES   REMARKS
IRON MOUNTAIN  CLOUDY    75  59  57 S16G24    30.04F
MARINETTE      MOSUNNY   77  61  57 SW15      30.06F
$$

WIZ017-030-035>037-045-112100-
CENTRAL WISCONSIN

CITY           SKY/WX    TMP DP  RH WIND       PRES   REMARKS
MEDFORD        NOT AVBL
WAUSAU         SUNNY     77  56  48 S20       30.05F
MOSINEE        CLOUDY    73  57  56 S14G22    30.08F
MARSHFIELD     MOSUNNY   75  59  57 SW20      30.07R
WISC RAPIDS    MOSUNNY   78  55  44 S12       30.09R
STEVENS POINT  NOT AVBL
WAUPACA        MOSUNNY   81  55  40 S13G18    30.08F
SHAWANO        CLOUDY    79  58  48 SW12G21   30.07F
CLINTONVILLE   MOSUNNY   79  54  41 S20G25    30.08F
$$

WIZ038-039-048-051-112100-
FOX VALLEY

CITY           SKY/WX    TMP DP  RH WIND       PRES   REMARKS
NWS GREEN BAY  MOSUNNY   79  57  46 S16G25    30.09F
APPLETON       PTSUNNY   77  55  47 SW17G23   30.11F
OSHKOSH        PTSUNNY   78  56  46 S13G25    30.10F
FOND DU LAC    PTSUNNY   78  57  48 S16       30.10F
$$

WIZ022-050-052-112100-
EAST CENTRAL WISCONSIN

CITY           SKY/WX    TMP DP  RH WIND       PRES   REMARKS
STURGEON BAY   PTSUNNY   73  61  64 S12       30.10F
MANITOWOC      NOT AVBL
SHEBOYGAN      CLOUDY    76  59  55 S14       30.13F
$$

LMZ563-521-522-541>543-112100-
LAKESHORE

STATION/POSITION TIME  TEMP    WIND        PRES    VSBY  WAVE
                       AIR SEA DIR/SP/G                  HT/PER
                 (UTC) (F)     (DEG/KT/KT) (MB)    (MI)  (FT/S)
SHEBOYGAN LKSHOR 1900   65     180/ 18/ 18 1020.7F
KEWAUNEE LKSHORE 1900   55     180/ 13/ 15 1020.7F
NORTHPORT PIER   1900   65     170/  4/ 11 1020.0F
N MID LAKE BUOY  1900   58 53  200/ 16/ 19 1019.6F         3/ 4
MENOMINEE LKSHOR 1900   76     180/ 11/ 16 1019.2F
$$



USA.gov is the U.S. government's official web portal to all federal, state and local government web resources and services.